ANA67 ROAH-RJFF

Flight info

Callsign ANA67
Flight time 1h 22m
Altitude 35000
Route AMAMI Y25 GOKYO/N0454F360 Y25 ISKUP
Aircraft A321/M-SDE3FGHIRWY/LB1

Departure

Time 2026-04-25 06:47
Airport Naha International Airport (ROAH)

Arrival

Time 2026-04-25 08:09
Airport Fukuoka Airport (RJFF)
Time Latitude Longitude Altitude Speed Heading
2026-04-25 06:19 26.20772 127.64825 21 ft 0 kts 88°
2026-04-25 06:35 26.20772 127.64810 21 ft 3 kts 90°
2026-04-25 06:36 26.20773 127.64787 20 ft 3 kts 97°
2026-04-25 06:36 26.20776 127.64766 18 ft 3 kts 109°
2026-04-25 06:36 26.20785 127.64746 20 ft 3 kts 135°
2026-04-25 06:36 26.20797 127.64737 19 ft 1 kts 175°
2026-04-25 06:37 26.20799 127.64736 21 ft 1 kts 177°
2026-04-25 06:40 26.20798 127.64736 17 ft 1 kts 177°
2026-04-25 06:41 26.20773 127.64738 17 ft 6 kts 177°
2026-04-25 06:41 26.20715 127.64740 17 ft 11 kts 178°
2026-04-25 06:41 26.20635 127.64744 17 ft 11 kts 178°
2026-04-25 06:41 26.20565 127.64747 17 ft 9 kts 177°
2026-04-25 06:42 26.20484 127.64751 18 ft 15 kts 178°
2026-04-25 06:42 26.20347 127.64757 17 ft 24 kts 178°
2026-04-25 06:42 26.20164 127.64766 17 ft 23 kts 178°
2026-04-25 06:42 26.20042 127.64772 17 ft 17 kts 177°
2026-04-25 06:43 26.19929 127.64778 17 ft 16 kts 177°
2026-04-25 06:43 26.19823 127.64783 17 ft 16 kts 178°
2026-04-25 06:43 26.19692 127.64788 17 ft 26 kts 178°
2026-04-25 06:43 26.19524 127.64797 17 ft 25 kts 177°
2026-04-25 06:44 26.19345 127.64805 17 ft 27 kts 177°
2026-04-25 06:44 26.19147 127.64814 17 ft 30 kts 178°
2026-04-25 06:44 26.18980 127.64822 17 ft 23 kts 177°
2026-04-25 06:44 26.18824 127.64829 18 ft 22 kts 178°
2026-04-25 06:45 26.18677 127.64836 17 ft 21 kts 177°
2026-04-25 06:45 26.18541 127.64843 16 ft 19 kts 178°
2026-04-25 06:45 26.18506 127.64779 18 ft 12 kts 290°
2026-04-25 06:45 26.18511 127.64691 16 ft 6 kts 268°
2026-04-25 06:46 26.18516 127.64652 16 ft 5 kts 295°
2026-04-25 06:46 26.18555 127.64637 17 ft 12 kts 356°
2026-04-25 06:46 26.18737 127.64628 18 ft 52 kts 357°
2026-04-25 06:46 26.19316 127.64600 18 ft 112 kts 358°
2026-04-25 06:47 26.20266 127.64551 20 ft 158 kts 356°
2026-04-25 06:47 26.21398 127.64472 470 ft 159 kts 355°
2026-04-25 06:47 26.22502 127.64402 1019 ft 161 kts 355°
2026-04-25 06:47 26.23623 127.64297 1548 ft 163 kts 355°
2026-04-25 06:48 26.24777 127.64244 1910 ft 173 kts 357°
2026-04-25 06:48 26.26009 127.63992 2073 ft 194 kts 337°
2026-04-25 06:48 26.27282 127.63291 2258 ft 215 kts 330°
2026-04-25 06:48 26.28653 127.62403 2474 ft 242 kts 328°
2026-04-25 06:49 26.30172 127.61392 3077 ft 256 kts 327°
2026-04-25 06:49 26.31694 127.60389 3901 ft 260 kts 326°
2026-04-25 06:49 26.33270 127.59368 4793 ft 263 kts 326°
2026-04-25 06:49 26.34872 127.58347 5614 ft 267 kts 326°
2026-04-25 06:50 26.36503 127.57316 6449 ft 272 kts 326°
2026-04-25 06:50 26.38164 127.56274 7184 ft 276 kts 326°
2026-04-25 06:50 26.39770 127.55120 7856 ft 274 kts 312°
2026-04-25 06:50 26.40862 127.53416 8461 ft 269 kts 288°
2026-04-25 06:51 26.41213 127.51406 9125 ft 264 kts 265°
2026-04-25 06:51 26.40807 127.49426 9809 ft 263 kts 244°
2026-04-25 06:51 26.39759 127.47742 10342 ft 272 kts 231°
2026-04-25 06:51 26.38478 127.46078 10469 ft 294 kts 230°
2026-04-25 06:52 26.37085 127.44298 10596 ft 314 kts 229°
2026-04-25 06:52 26.35394 127.42664 10958 ft 329 kts 216°
2026-04-25 06:52 26.33323 127.41502 11510 ft 338 kts 203°
2026-04-25 06:52 26.30997 127.40936 12103 ft 349 kts 188°
2026-04-25 06:53 26.28553 127.40921 12795 ft 355 kts 184°
2026-04-25 06:53 26.26065 127.40951 13447 ft 359 kts 184°
2026-04-25 06:53 26.23553 127.40978 14023 ft 363 kts 185°
2026-04-25 06:53 26.21021 127.41003 14559 ft 366 kts 185°
2026-04-25 06:54 26.18462 127.41026 15071 ft 369 kts 185°
2026-04-25 06:54 26.15881 127.41100 15580 ft 375 kts 179°
2026-04-25 06:54 26.13323 127.41887 16050 ft 392 kts 160°
2026-04-25 06:54 26.11058 127.43660 16500 ft 409 kts 139°
2026-04-25 06:55 26.09428 127.46307 16944 ft 425 kts 117°
2026-04-25 06:55 26.08751 127.49537 17378 ft 436 kts 93°
2026-04-25 06:55 26.09095 127.52903 17846 ft 441 kts 79°
2026-04-25 06:55 26.09701 127.56265 18336 ft 444 kts 79°
2026-04-25 06:56 26.10335 127.59647 18731 ft 448 kts 78°
2026-04-25 06:56 26.10979 127.63034 19133 ft 451 kts 79°
2026-04-25 06:56 26.11628 127.66476 19522 ft 455 kts 79°
2026-04-25 06:56 26.12267 127.69932 19898 ft 459 kts 79°
2026-04-25 06:57 26.12894 127.73377 20248 ft 462 kts 79°
2026-04-25 06:57 26.13528 127.76895 20574 ft 466 kts 79°
2026-04-25 06:57 26.14176 127.80490 20954 ft 469 kts 79°
2026-04-25 06:57 26.14813 127.84010 21278 ft 472 kts 79°
2026-04-25 06:58 26.15493 127.87588 21589 ft 476 kts 76°
2026-04-25 06:58 26.16594 127.91083 21902 ft 479 kts 65°
2026-04-25 06:58 26.18219 127.94328 22204 ft 481 kts 53°
2026-04-25 06:58 26.20320 127.97208 22510 ft 480 kts 42°
2026-04-25 06:59 26.22820 127.99645 22835 ft 476 kts 31°
2026-04-25 06:59 26.25610 128.01628 23134 ft 475 kts 26°
2026-04-25 06:59 26.28458 128.03540 23434 ft 479 kts 26°
2026-04-25 06:59 26.31320 128.05469 23636 ft 484 kts 26°
2026-04-25 07:00 26.34215 128.07425 23864 ft 488 kts 26°
2026-04-25 07:00 26.37121 128.09396 24138 ft 490 kts 26°
2026-04-25 07:00 26.40039 128.11380 24389 ft 493 kts 26°
2026-04-25 07:00 26.42981 128.13381 24678 ft 496 kts 26°
2026-04-25 07:01 26.45943 128.15393 25026 ft 499 kts 26°
2026-04-25 07:01 26.48907 128.17403 25413 ft 502 kts 26°
2026-04-25 07:01 26.51907 128.19436 25648 ft 505 kts 26°
2026-04-25 07:01 26.54915 128.21477 25906 ft 507 kts 26°
2026-04-25 07:02 26.57929 128.23527 26164 ft 510 kts 26°
2026-04-25 07:02 26.60973 128.25601 26422 ft 512 kts 26°
2026-04-25 07:02 26.64015 128.27675 26672 ft 514 kts 26°
2026-04-25 07:02 26.67018 128.29901 26953 ft 520 kts 34°
2026-04-25 07:03 26.69733 128.32592 27242 ft 528 kts 44°
2026-04-25 07:03 26.72116 128.35728 27476 ft 532 kts 50°
2026-04-25 07:03 26.74415 128.38987 27707 ft 534 kts 50°
2026-04-25 07:03 26.76700 128.42207 27967 ft 536 kts 50°
2026-04-25 07:04 26.79059 128.45519 28211 ft 538 kts 50°
2026-04-25 07:04 26.81382 128.48772 28424 ft 540 kts 50°
2026-04-25 07:04 26.83725 128.52060 28700 ft 542 kts 50°
2026-04-25 07:04 26.86109 128.55417 28865 ft 546 kts 50°
2026-04-25 07:05 26.88482 128.58771 29058 ft 549 kts 50°
2026-04-25 07:05 26.90909 128.62076 29264 ft 550 kts 45°
2026-04-25 07:05 26.93625 128.64997 29471 ft 548 kts 36°
2026-04-25 07:05 26.96723 128.67526 29739 ft 542 kts 27°
2026-04-25 07:06 26.99948 128.69555 30077 ft 537 kts 22°
2026-04-25 07:06 27.03243 128.71538 30336 ft 538 kts 22°
2026-04-25 07:06 27.06535 128.73531 30541 ft 539 kts 23°
2026-04-25 07:06 27.09844 128.75544 30763 ft 540 kts 23°
2026-04-25 07:07 27.13201 128.77594 30999 ft 541 kts 23°
2026-04-25 07:07 27.16462 128.79588 31230 ft 542 kts 23°
2026-04-25 07:07 27.19769 128.81607 31471 ft 542 kts 23°
2026-04-25 07:07 27.23092 128.83628 31720 ft 544 kts 23°
2026-04-25 07:08 27.26466 128.85677 31918 ft 545 kts 23°
2026-04-25 07:08 27.29768 128.87685 32150 ft 547 kts 23°
2026-04-25 07:08 27.33105 128.89720 32395 ft 547 kts 24°
2026-04-25 07:08 27.36444 128.91762 32657 ft 547 kts 24°
2026-04-25 07:09 27.39801 128.93815 32916 ft 547 kts 24°
2026-04-25 07:09 27.43154 128.95865 33160 ft 549 kts 24°
2026-04-25 07:09 27.46510 128.97918 33364 ft 550 kts 24°
2026-04-25 07:09 27.49868 128.99969 33594 ft 551 kts 24°
2026-04-25 07:10 27.53240 129.02031 33829 ft 551 kts 24°
2026-04-25 07:10 27.56606 129.04092 34061 ft 552 kts 24°
2026-04-25 07:10 27.59985 129.06162 34271 ft 552 kts 24°
2026-04-25 07:10 27.63355 129.08229 34499 ft 552 kts 24°
2026-04-25 07:11 27.66731 129.10305 34708 ft 552 kts 24°
2026-04-25 07:11 27.70105 129.12382 34898 ft 552 kts 24°
2026-04-25 07:11 27.73480 129.14458 34997 ft 551 kts 24°
2026-04-25 07:12 27.80169 129.18577 35058 ft 547 kts 24°
2026-04-25 07:12 27.90223 129.24769 35030 ft 548 kts 24°
2026-04-25 07:13 27.96915 129.28898 35031 ft 549 kts 24°
2026-04-25 07:13 28.03614 129.33049 35021 ft 549 kts 23°
2026-04-25 07:14 28.10304 129.37207 35003 ft 549 kts 24°
2026-04-25 07:14 28.17009 129.41370 35016 ft 549 kts 24°
2026-04-25 07:15 28.23717 129.45528 35029 ft 549 kts 23°
2026-04-25 07:15 28.30426 129.49702 35012 ft 550 kts 23°
2026-04-25 07:16 28.37125 129.53886 35027 ft 550 kts 23°
2026-04-25 07:16 28.42762 129.57160 35010 ft 543 kts 14°
2026-04-25 07:17 28.47524 129.58807 34977 ft 527 kts
2026-04-25 07:17 28.51127 129.59432 34975 ft 521 kts 358°
2026-04-25 07:17 28.57116 129.60318 35009 ft 523 kts 358°
2026-04-25 07:18 28.64333 129.61426 35020 ft 523 kts 358°
2026-04-25 07:18 28.71547 129.62536 35027 ft 523 kts 358°
2026-04-25 07:19 28.78733 129.63634 35061 ft 522 kts 357°
2026-04-25 07:19 28.85941 129.64739 35054 ft 521 kts 358°
2026-04-25 07:20 28.93130 129.65832 35047 ft 521 kts 357°
2026-04-25 07:20 29.00322 129.66928 35074 ft 521 kts 357°
2026-04-25 07:21 29.07506 129.68036 35058 ft 521 kts 357°
2026-04-25 07:21 29.14680 129.69143 35051 ft 520 kts 357°
2026-04-25 07:22 29.21800 129.70241 35080 ft 520 kts 357°
2026-04-25 07:22 29.28980 129.71354 35057 ft 519 kts 357°
2026-04-25 07:23 29.36129 129.72452 35050 ft 519 kts 357°
2026-04-25 07:23 29.43281 129.73547 35078 ft 519 kts 357°
2026-04-25 07:24 29.50437 129.74652 35062 ft 519 kts 357°
2026-04-25 07:24 29.57600 129.75765 35049 ft 518 kts 357°
2026-04-25 07:25 29.64745 129.76882 35046 ft 518 kts 357°
2026-04-25 07:25 29.71884 129.77996 35042 ft 518 kts 357°
2026-04-25 07:26 29.79039 129.79115 35043 ft 518 kts 357°
2026-04-25 07:26 29.86195 129.80228 35071 ft 519 kts 358°
2026-04-25 07:27 29.93346 129.81340 35036 ft 518 kts 357°
2026-04-25 07:27 30.00525 129.82468 35035 ft 517 kts 357°
2026-04-25 07:28 30.07657 129.83379 35072 ft 513 kts 354°
2026-04-25 07:28 30.14760 129.84055 35058 ft 512 kts 354°
2026-04-25 07:29 30.21810 129.84733 35051 ft 512 kts 354°
2026-04-25 07:29 30.28909 129.85501 35078 ft 513 kts 355°
2026-04-25 07:30 30.36014 129.86300 35062 ft 513 kts 355°
2026-04-25 07:30 30.43109 129.87079 35060 ft 512 kts 355°
2026-04-25 07:31 30.50210 129.87842 35050 ft 512 kts 354°
2026-04-25 07:31 30.57290 129.88608 35035 ft 511 kts 354°
2026-04-25 07:32 30.64369 129.89375 35038 ft 511 kts 354°
2026-04-25 07:32 30.71453 129.90150 35064 ft 511 kts 354°
2026-04-25 07:33 30.78540 129.90927 35057 ft 512 kts 353°
2026-04-25 07:33 30.85634 129.91708 35056 ft 513 kts 354°
2026-04-25 07:34 30.92733 129.92491 35087 ft 513 kts 353°
2026-04-25 07:34 30.99831 129.93271 35076 ft 513 kts 353°
2026-04-25 07:35 31.06938 129.94049 35068 ft 513 kts 353°
2026-04-25 07:35 31.14051 129.94836 35085 ft 513 kts 353°
2026-04-25 07:36 31.21153 129.95617 35075 ft 513 kts 353°
2026-04-25 07:36 31.28255 129.96396 35067 ft 513 kts 353°
2026-04-25 07:37 31.35349 129.97079 35074 ft 511 kts 351°
2026-04-25 07:37 31.42444 129.97598 35069 ft 510 kts 350°
2026-04-25 07:38 31.49525 129.98098 35065 ft 510 kts 351°
2026-04-25 07:38 31.56608 129.98643 35077 ft 511 kts 351°
2026-04-25 07:39 31.63706 129.99219 35069 ft 511 kts 351°
2026-04-25 07:39 31.70811 129.99802 35068 ft 511 kts 351°
2026-04-25 07:40 31.77869 130.00364 35063 ft 511 kts 351°
2026-04-25 07:40 31.85018 130.00930 35069 ft 512 kts 351°
2026-04-25 07:41 31.92072 130.01492 35116 ft 512 kts 351°
2026-04-25 07:41 31.99187 130.02062 35077 ft 512 kts 351°
2026-04-25 07:42 32.06291 130.02630 35074 ft 512 kts 351°
2026-04-25 07:42 32.13411 130.03200 35063 ft 512 kts 351°
2026-04-25 07:43 32.20527 130.03778 35066 ft 513 kts 351°
2026-04-25 07:43 32.27643 130.04351 35065 ft 513 kts 351°
2026-04-25 07:44 32.34779 130.04928 34484 ft 518 kts 351°
2026-04-25 07:44 32.38414 130.05210 33401 ft 528 kts 352°
2026-04-25 07:44 32.42098 130.05499 32488 ft 531 kts 352°
2026-04-25 07:45 32.45777 130.05797 31689 ft 530 kts 353°
2026-04-25 07:45 32.49446 130.06106 31035 ft 526 kts 354°
2026-04-25 07:45 32.53073 130.06417 30446 ft 522 kts 354°
2026-04-25 07:45 32.56679 130.06730 29920 ft 514 kts 355°
2026-04-25 07:46 32.60193 130.06827 29342 ft 496 kts 347°
2026-04-25 07:46 32.63541 130.06278 28764 ft 477 kts 338°
2026-04-25 07:46 32.66773 130.05433 28150 ft 472 kts 338°
2026-04-25 07:46 32.69957 130.04610 27550 ft 468 kts 338°
2026-04-25 07:47 32.73130 130.03801 26960 ft 464 kts 339°
2026-04-25 07:47 32.76269 130.03007 26426 ft 459 kts 339°
2026-04-25 07:47 32.79388 130.02220 25876 ft 455 kts 340°
2026-04-25 07:47 32.82463 130.01442 25323 ft 451 kts 341°
2026-04-25 07:48 32.85526 130.00674 24769 ft 447 kts 343°
2026-04-25 07:48 32.88547 129.99942 24197 ft 443 kts 341°
2026-04-25 07:48 32.91559 129.99176 23667 ft 440 kts 341°
2026-04-25 07:48 32.94532 129.98403 23061 ft 436 kts 341°
2026-04-25 07:49 32.97484 129.97632 22456 ft 432 kts 342°
2026-04-25 07:49 33.00401 129.96874 21892 ft 428 kts 342°
2026-04-25 07:49 33.03300 129.96125 21324 ft 424 kts 342°
2026-04-25 07:49 33.06167 129.95387 20756 ft 420 kts 342°
2026-04-25 07:50 33.09011 129.94659 20209 ft 416 kts 343°
2026-04-25 07:50 33.11825 129.93941 19666 ft 412 kts 343°
2026-04-25 07:50 33.14610 129.93227 19118 ft 409 kts 343°
2026-04-25 07:50 33.17382 129.92513 18594 ft 405 kts 343°
2026-04-25 07:51 33.20124 129.91809 18148 ft 399 kts 344°
2026-04-25 07:51 33.22789 129.91128 18016 ft 384 kts 345°
2026-04-25 07:51 33.25368 129.90469 18055 ft 377 kts 344°
2026-04-25 07:51 33.27896 129.89818 18054 ft 376 kts 344°
2026-04-25 07:52 33.30448 129.89157 17959 ft 374 kts 344°
2026-04-25 07:52 33.33049 129.88482 16996 ft 384 kts 345°
2026-04-25 07:52 33.35672 129.87803 16285 ft 387 kts 345°
2026-04-25 07:52 33.38317 129.87119 15712 ft 386 kts 345°
2026-04-25 07:53 33.40926 129.86443 15201 ft 383 kts 346°
2026-04-25 07:53 33.43491 129.85780 14711 ft 381 kts 346°
2026-04-25 07:53 33.46083 129.85183 14246 ft 378 kts 353°
2026-04-25 07:53 33.48703 129.85155 13766 ft 377 kts
2026-04-25 07:54 33.51295 129.85796 13196 ft 376 kts 16°
2026-04-25 07:54 33.53769 129.86683 12594 ft 376 kts 16°
2026-04-25 07:54 33.56259 129.87577 12138 ft 371 kts 16°
2026-04-25 07:54 33.58716 129.88460 11571 ft 370 kts 16°
2026-04-25 07:55 33.61162 129.89335 11302 ft 360 kts 16°
2026-04-25 07:55 33.63527 129.90178 11181 ft 347 kts 16°
2026-04-25 07:55 33.65804 129.90990 11057 ft 334 kts 17°
2026-04-25 07:55 33.67987 129.91768 10933 ft 322 kts 16°
2026-04-25 07:56 33.70105 129.92522 10824 ft 311 kts 17°
2026-04-25 07:56 33.72112 129.93240 10683 ft 293 kts 17°
2026-04-25 07:56 33.74016 129.93921 10528 ft 277 kts 17°
2026-04-25 07:56 33.75830 129.94571 10184 ft 269 kts 17°
2026-04-25 07:57 33.77506 129.95525 9687 ft 265 kts 40°
2026-04-25 07:57 33.78764 129.97093 9205 ft 260 kts 52°
2026-04-25 07:57 33.79928 129.98753 8734 ft 258 kts 52°
2026-04-25 07:57 33.81076 130.00389 8286 ft 255 kts 52°
2026-04-25 07:58 33.82209 130.02003 7873 ft 249 kts 52°
2026-04-25 07:58 33.83320 130.03586 7345 ft 248 kts 52°
2026-04-25 07:58 33.84432 130.05175 6830 ft 248 kts 53°
2026-04-25 07:58 33.85535 130.06754 6319 ft 246 kts 53°
2026-04-25 07:59 33.86632 130.08322 5802 ft 244 kts 52°
2026-04-25 07:59 33.87718 130.09873 5304 ft 241 kts 52°
2026-04-25 07:59 33.88794 130.11411 4822 ft 239 kts 53°
2026-04-25 07:59 33.89863 130.12940 4308 ft 237 kts 53°
2026-04-25 08:00 33.90915 130.14447 3807 ft 234 kts 53°
2026-04-25 08:00 33.91951 130.15935 3325 ft 230 kts 52°
2026-04-25 08:00 33.92971 130.17399 2872 ft 225 kts 53°
2026-04-25 08:00 33.93939 130.18854 2406 ft 220 kts 61°
2026-04-25 08:01 33.94415 130.20539 2050 ft 210 kts 87°
2026-04-25 08:01 33.94349 130.21692 2028 ft 210 kts 102°
2026-04-25 08:01 33.93714 130.23274 2025 ft 213 kts 127°
2026-04-25 08:01 33.92521 130.24337 2022 ft 218 kts 152°
2026-04-25 08:02 33.91116 130.25026 2023 ft 219 kts 153°
2026-04-25 08:02 33.89235 130.25949 2025 ft 220 kts 154°
2026-04-25 08:02 33.88299 130.26405 2008 ft 209 kts 154°
2026-04-25 08:02 33.86968 130.27054 2035 ft 205 kts 154°
2026-04-25 08:03 33.85658 130.27699 2024 ft 203 kts 154°
2026-04-25 08:03 33.84351 130.28343 2018 ft 203 kts 156°
2026-04-25 08:03 33.83049 130.28985 2018 ft 203 kts 155°
2026-04-25 08:03 33.81740 130.29611 2018 ft 203 kts 158°
2026-04-25 08:04 33.80429 130.30218 2003 ft 200 kts 152°
2026-04-25 08:04 33.79195 130.30971 2015 ft 200 kts 149°
2026-04-25 08:04 33.77975 130.31789 1995 ft 200 kts 148°
2026-04-25 08:04 33.76769 130.32614 2011 ft 199 kts 147°
2026-04-25 08:05 33.75557 130.33446 2012 ft 200 kts 147°
2026-04-25 08:05 33.74350 130.34275 2011 ft 200 kts 148°
2026-04-25 08:05 33.73141 130.35104 2014 ft 198 kts 147°
2026-04-25 08:05 33.71942 130.35927 2013 ft 200 kts 147°
2026-04-25 08:06 33.70736 130.36754 2014 ft 200 kts 148°
2026-04-25 08:06 33.69530 130.37581 2008 ft 198 kts 147°
2026-04-25 08:06 33.68363 130.38381 1926 ft 192 kts 149°
2026-04-25 08:06 33.67254 130.39139 1696 ft 169 kts 147°
2026-04-25 08:07 33.66292 130.39797 1503 ft 153 kts 145°
2026-04-25 08:07 33.65399 130.40409 1313 ft 148 kts 148°
2026-04-25 08:07 33.64492 130.41031 1128 ft 148 kts 148°
2026-04-25 08:07 33.63601 130.41642 936 ft 147 kts 150°
2026-04-25 08:08 33.62715 130.42249 732 ft 146 kts 156°
2026-04-25 08:08 33.61841 130.42856 633 ft 147 kts 156°
2026-04-25 08:08 33.60953 130.43483 374 ft 151 kts 154°
2026-04-25 08:08 33.60052 130.44091 146 ft 146 kts 156°
2026-04-25 08:09 33.59176 130.44675 32 ft 137 kts 157°
2026-04-25 08:09 33.58512 130.45123 35 ft 82 kts 152°
2026-04-25 08:09 33.58191 130.45345 36 ft 31 kts 145°
2026-04-25 08:09 33.58090 130.45501 39 ft 16 kts 122°
2026-04-25 08:10 33.58100 130.45605 37 ft 15 kts 21°
2026-04-25 08:10 33.58194 130.45569 36 ft 15 kts 332°
2026-04-25 08:10 33.58286 130.45508 32 ft 16 kts 331°
2026-04-25 08:10 33.58380 130.45445 34 ft 15 kts 330°
2026-04-25 08:11 33.58433 130.45409 35 ft 7 kts 329°
2026-04-25 08:11 33.58475 130.45378 34 ft 9 kts 328°
2026-04-25 08:11 33.58552 130.45324 34 ft 14 kts 331°
2026-04-25 08:11 33.58623 130.45276 35 ft 7 kts 330°
2026-04-25 08:12 33.58660 130.45250 34 ft 5 kts 330°
2026-04-25 08:12 33.58687 130.45232 34 ft 4 kts 330°
2026-04-25 08:12 33.58729 130.45203 35 ft 13 kts 330°
2026-04-25 08:12 33.58837 130.45128 31 ft 20 kts 329°
2026-04-25 08:13 33.58961 130.45045 30 ft 21 kts 330°
2026-04-25 08:13 33.59090 130.44956 25 ft 22 kts 330°
2026-04-25 08:13 33.59215 130.44870 25 ft 17 kts 330°
2026-04-25 08:14 33.59343 130.44852 25 ft 6 kts
2026-04-25 08:14 33.59384 130.44850 24 ft 6 kts 348°
2026-04-25 08:14 33.59418 130.44829 24 ft 5 kts 331°
2026-04-25 08:14 33.59445 130.44812 24 ft 0 kts 331°
2026-04-25 08:15 33.59452 130.44807 26 ft 2 kts 331°
2026-04-25 08:15 33.59461 130.44801 24 ft 3 kts 331°
2026-04-25 08:16 33.59498 130.44810 25 ft 7 kts 53°
2026-04-25 08:16 33.59518 130.44854 23 ft 2 kts 62°
2026-04-25 08:16 33.59523 130.44866 23 ft 1 kts 62°
2026-04-25 08:16 33.59525 130.44868 23 ft 1 kts 62°
2026-04-25 08:17 33.59526 130.44871 23 ft 0 kts 62°
2026-04-25 08:17 33.59527 130.44873 23 ft 0 kts 62°